This is the latest recevied weather packets stored in our database for station/object W0WC. If no packets are shown the sender has not sent any weather packets the latest 10 day(s).
| Time | Temp. | Humidity | Pressure | Rain* | Wind** | Luminosity | Snow |
|---|---|---|---|---|---|---|---|
| 1788632086 | 36.67° C | 40% | 1015.7 hPa | 0 mm | - | 168 W/m² | - |
| 1788631786 | 37.22° C | 39% | 1015.6 hPa | 0 mm | - | 512 W/m² | - |
| 1788631480 | 37.22° C | 39% | 1015.8 hPa | 0 mm | - | 753 W/m² | - |
| 1788631176 | 36.67° C | 39% | 1016 hPa | 0 mm | - | 777 W/m² | - |
| 1788630875 | 38.33° C | 38% | 1015.9 hPa | 0 mm | - | 330 W/m² | - |
| 1788630571 | 38.33° C | 37% | 1016 hPa | 0 mm | - | 746 W/m² | - |
| 1788630266 | 37.78° C | 38% | 1016.2 hPa | 0 mm | - | 749 W/m² | - |
| 1788629961 | 37.78° C | 38% | 1016 hPa | 0 mm | - | 739 W/m² | - |
| 1788629659 | 37.78° C | 38% | 1016.4 hPa | 0 mm | - | 728 W/m² | - |
| 1788629358 | 37.78° C | 38% | 1016.4 hPa | 0 mm | - | 724 W/m² | - |
| 1788629056 | 37.78° C | 38% | 1016.3 hPa | 0 mm | - | 593 W/m² | - |
| 1788628753 | 37.78° C | 39% | 1016.5 hPa | 0 mm | - | 686 W/m² | - |
| 1788628449 | 37.22° C | 39% | 1016.5 hPa | 0 mm | - | 705 W/m² | - |
| 1788628145 | 37.78° C | 38% | 1016.6 hPa | 0 mm | - | 705 W/m² | - |
| 1788627841 | 36.11° C | 41% | 1016.8 hPa | 0 mm | - | 682 W/m² | - |
| 1788627541 | 36.11° C | 42% | 1016.7 hPa | 0 mm | - | 662 W/m² | - |
| 1788627236 | 36.11° C | 41% | 1016.7 hPa | 0 mm | - | 633 W/m² | - |
| 1788626936 | 36.11° C | 42% | 1016.7 hPa | 0 mm | - | 632 W/m² | - |
| 1788626631 | 36.11° C | 41% | 1016.6 hPa | 0 mm | - | 624 W/m² | - |
| 1788626326 | 35.56° C | 42% | 1016.6 hPa | 0 mm | - | 613 W/m² | - |
| 1788626023 | 35.56° C | 43% | 1016.7 hPa | 0 mm | - | 606 W/m² | - |
| 1788625718 | 35.56° C | 43% | 1016.6 hPa | 0 mm | - | 599 W/m² | - |
| 1788625418 | 35.56° C | 43% | 1016.7 hPa | 0 mm | - | 592 W/m² | - |
| 1788625113 | 35.56° C | 44% | 1016.9 hPa | 0 mm | - | 583 W/m² | - |
| 1788624812 | 35.56° C | 44% | 1016.7 hPa | 0 mm | - | 570 W/m² | - |
* Rain latest hour (hover to see other rain measurements)
** Current wind speed in m/s (hover to see current wind gust speed)